This is the latest recevied weather packets stored in our database for station/object EA1FBN. If no packets are shown the sender has not sent any weather packets the latest 10 day(s).
| Time | Temp. | Humidity | Pressure | Rain* | Wind** | Luminosity | Snow |
|---|---|---|---|---|---|---|---|
| 1787524840 | 20° C | 41% | 1010.9 hPa | 0.25 mm | - | - | - |
| 1787524240 | 20.56° C | 42% | 1010.9 hPa | 0.25 mm | - | - | - |
| 1787523940 | 20.56° C | 42% | 1010.8 hPa | 0.25 mm | - | - | - |
| 1787523340 | 20.56° C | 42% | 1010.8 hPa | 0.25 mm | - | - | - |
| 1787523040 | 20.56° C | 41% | 1010.8 hPa | 0.25 mm | - | - | - |
| 1787522440 | 20.56° C | 42% | 1010.7 hPa | 0.25 mm | - | - | - |
| 1787522140 | 20.56° C | 42% | 1010.8 hPa | 0.25 mm | - | - | - |
| 1787521540 | 21.11° C | 42% | 1010.8 hPa | 0 mm | - | - | - |
| 1787521240 | 21.11° C | 40% | 1010.9 hPa | 0 mm | - | - | - |
| 1787520640 | 21.67° C | 38% | 1010.9 hPa | 0 mm | - | - | - |
| 1787520340 | 21.67° C | 38% | 1010.9 hPa | 0 mm | - | - | - |
| 1787519740 | 21.67° C | 37% | 1011 hPa | 0 mm | - | - | - |
| 1787519440 | 22.22° C | 37% | 1010.9 hPa | 0 mm | - | - | - |
| 1787518840 | 22.78° C | 36% | 1010.9 hPa | 0 mm | - | - | - |
| 1787518540 | 23.33° C | 35% | 1010.9 hPa | 0 mm | - | - | - |
| 1787517940 | 23.33° C | 34% | 1011 hPa | 0 mm | - | - | - |
| 1787517640 | 23.89° C | 33% | 1011 hPa | 0 mm | - | - | - |
| 1787517040 | 23.89° C | 34% | 1011 hPa | 0 mm | - | - | - |
| 1787516740 | 23.89° C | 34% | 1010.9 hPa | 0 mm | - | - | - |
| 1787516140 | 24.44° C | 31% | 1010.8 hPa | 0 mm | - | - | - |
| 1787515841 | 25° C | 31% | 1010.8 hPa | 0 mm | - | - | - |
| 1787515241 | 25.56° C | 30% | 1010.6 hPa | 0 mm | - | - | - |
| 1787514941 | 25.56° C | 30% | 1010.6 hPa | 0 mm | - | - | - |
| 1787514341 | 25° C | 30% | 1010.6 hPa | 0 mm | - | - | - |
| 1787514041 | 25° C | 31% | 1010.6 hPa | 0 mm | - | - | - |
* Rain latest hour (hover to see other rain measurements)
** Current wind speed in m/s (hover to see current wind gust speed)